This is the latest recevied weather packets stored in our database for station/object KI7MOQ. If no packets are shown the sender has not sent any weather packets the latest 10 day(s).
| Time | Temp. | Humidity | Pressure | Rain* | Wind** | Luminosity | Snow |
|---|---|---|---|---|---|---|---|
| 1777567752 | 16.11° C | 63% | 1021.4 hPa | 0 mm | - | 105 W/m² | - |
| 1777567449 | 15.56° C | 66% | 1021.4 hPa | 0 mm | - | 142 W/m² | - |
| 1777567147 | 15.56° C | 67% | 1021.2 hPa | 0 mm | - | 113 W/m² | - |
| 1777566845 | 15° C | 67% | 1021.4 hPa | 0 mm | - | 109 W/m² | - |
| 1777566542 | 15° C | 71% | 1021.5 hPa | 0 mm | - | 278 W/m² | - |
| 1777566239 | 14.44° C | 71% | 1021.4 hPa | 0 mm | - | 194 W/m² | - |
| 1777565936 | 13.89° C | 73% | 1021.3 hPa | 0 mm | - | 221 W/m² | - |
| 1777565631 | 13.89° C | 74% | 1021.6 hPa | 0 mm | - | 87 W/m² | - |
| 1777565329 | 13.33° C | 74% | 1021.5 hPa | 0 mm | - | 75 W/m² | - |
| 1777565024 | 13.33° C | 75% | 1021.6 hPa | 0 mm | - | 116 W/m² | - |
| 1777564720 | 12.78° C | 75% | 1021.7 hPa | 0 mm | - | 191 W/m² | - |
| 1777564415 | 12.22° C | 77% | 1021.7 hPa | 0 mm | - | 194 W/m² | - |
| 1777564112 | 11.67° C | 78% | 1021.8 hPa | 0 mm | - | 170 W/m² | - |
| 1777563807 | 11.67° C | 81% | 1021.7 hPa | 0 mm | - | 136 W/m² | - |
| 1777563504 | 11.67° C | 82% | 1021.7 hPa | 0 mm | - | 136 W/m² | - |
| 1777563203 | 11.11° C | 84% | 1021.9 hPa | 0 mm | - | 116 W/m² | - |
| 1777562900 | 11.11° C | 84% | 1021.8 hPa | 0 mm | - | 87 W/m² | - |
| 1777562596 | 11.11° C | 86% | 1021.8 hPa | 0 mm | - | 81 W/m² | - |
| 1777562295 | 10.56° C | 87% | 1021.8 hPa | 0 mm | - | 40 W/m² | - |
| 1777561992 | 10.56° C | 88% | 1021.8 hPa | 0 mm | - | 36 W/m² | - |
| 1777561689 | 10.56° C | 88% | 1022 hPa | 0 mm | - | 27 W/m² | - |
| 1777561384 | 10° C | 88% | 1022.1 hPa | 0 mm | - | 30 W/m² | - |
| 1777561080 | 10° C | 88% | 1021.9 hPa | 0 mm | - | 44 W/m² | - |
| 1777560775 | 10° C | 89% | 1022 hPa | 0 mm | - | 26 W/m² | - |
| 1777560473 | 9.44° C | 90% | 1022 hPa | 0 mm | - | 25 W/m² | - |
* Rain latest hour (hover to see other rain measurements)
** Current wind speed in m/s (hover to see current wind gust speed)